Location: Lake Arresoe
(56.0000°N, 12.5000°E)
Time: 12:03:51
(UTC+01:00)

Okean 3 - Visible Passes

Search period start: 18 December 2017 00:00
Search period end: 28 December 2017 00:00
Orbit: 577 x 602 km, 82.5° (Epoch: 17 December)

Date Brightness Start Highest point End Pass type
(mag) Time Alt. Az. Time Alt. Az. Time Alt. Az.
18 Dec 5.6 17:45:46 10° WSW 17:49:13 24° WNW 17:52:43 10° N visible
19 Dec 3.5 16:15:33 10° S 16:19:45 74° E 16:24:02 10° NNE visible
19 Dec 6.0 17:54:33 10° WSW 17:57:34 19° WNW 18:00:36 10° NNW visible
20 Dec 3.6 16:23:41 10° SSW 16:27:55 81° WNW 16:32:12 10° N visible
20 Dec 6.2 18:03:33 10° W 18:05:57 15° NW 18:08:20 10° NNW visible
21 Dec 4.1 16:31:55 10° SSW 16:36:06 59° WNW 16:40:20 10° N visible
21 Dec 6.3 18:12:58 10° WNW 18:14:21 11° NW 18:15:45 10° NNW visible
22 Dec 4.6 16:40:17 10° SW 16:44:19 43° WNW 16:48:25 10° N visible
23 Dec 5.1 16:48:45 10° SW 16:52:35 32° WNW 16:56:28 10° N visible
24 Dec 5.5 16:57:21 10° WSW 17:00:53 25° WNW 17:04:27 10° N visible
25 Dec 5.9 17:06:06 10° WSW 17:09:13 19° WNW 17:12:21 10° NNW visible
26 Dec 6.1 17:15:03 10° W 17:17:35 15° NW 17:20:08 10° NNW visible
27 Dec 6.2 17:24:22 10° WNW 17:25:59 12° NW 17:27:37 10° NNW visible
